Zurück zum Katalog

FENGYUN 1C DEB

AktivSSO
NORAD 29923·DEBRIS·🇨🇳 China

Gestartet May 10, 1999 von Taiyuan Satellite Launch Center

Loading…

Nächste Überflüge (nächste 24 Stunden)

TLE

AktuellSource: Space-Track

Epoche: Sep 14, 2026, 05:54 UTC

1 29923U 99025HV  26257.24609177  .00000478  00000-0  27194-3 0  9993
2 29923  98.6880 262.9268 0018566 104.3925 316.3645 14.14347643 11671

Verfolge FENGYUN 1C DEB in Echtzeit mit AllMySat

Download on the App Store